Year,Month,Day,Hour,Minute,Value (Times are PST for temperature in C)
2012,07,09,00,00,16.30
2012,07,09,00,01,16.20
2012,07,09,00,02,16.20
2012,07,09,00,03,16.20
2012,07,09,00,04,16.20
2012,07,09,00,05,16.20
2012,07,09,00,06,16.10
2012,07,09,00,07,16.10
2012,07,09,00,08,16.10
2012,07,09,00,09,16.10
2012,07,09,00,10,16.10
2012,07,09,00,11,16.00
2012,07,09,00,12,16.00
2012,07,09,00,13,16.00
2012,07,09,00,14,15.90
2012,07,09,00,15,15.90
2012,07,09,00,16,15.90
2012,07,09,00,17,15.90
2012,07,09,00,18,15.80
2012,07,09,00,19,15.80
2012,07,09,00,20,15.80
2012,07,09,00,21,15.80
2012,07,09,00,22,15.70
2012,07,09,00,23,15.70
2012,07,09,00,24,15.70
2012,07,09,00,25,15.70
2012,07,09,00,26,15.60
2012,07,09,00,27,15.60
2012,07,09,00,28,15.60
2012,07,09,00,29,15.60
2012,07,09,00,30,15.60
2012,07,09,00,31,15.50
2012,07,09,00,32,15.50
2012,07,09,00,33,15.40
2012,07,09,00,34,15.40
2012,07,09,00,35,15.40
2012,07,09,00,36,15.30
2012,07,09,00,37,15.30
2012,07,09,00,38,15.20
2012,07,09,00,39,15.20
2012,07,09,00,40,15.20
2012,07,09,00,41,15.20
2012,07,09,00,42,15.10
2012,07,09,00,43,15.10
2012,07,09,00,44,15.10
2012,07,09,00,45,15.00
2012,07,09,00,46,15.00
2012,07,09,00,47,15.00
2012,07,09,00,48,15.00
2012,07,09,00,49,15.00
2012,07,09,00,50,15.00
2012,07,09,00,51,15.00
2012,07,09,00,52,15.00
2012,07,09,00,53,15.00
2012,07,09,00,54,15.00
2012,07,09,00,55,14.90
2012,07,09,00,56,14.90
2012,07,09,00,57,14.90
2012,07,09,00,58,14.80
2012,07,09,00,59,14.80
2012,07,09,01,00,14.80
2012,07,09,01,01,14.80
2012,07,09,01,02,14.80
2012,07,09,01,03,14.70
2012,07,09,01,04,14.70
2012,07,09,01,05,14.70
2012,07,09,01,06,14.70
2012,07,09,01,07,14.70
2012,07,09,01,08,14.70
2012,07,09,01,09,14.70
2012,07,09,01,10,14.70
2012,07,09,01,11,14.70
2012,07,09,01,12,14.70
2012,07,09,01,13,14.70
2012,07,09,01,14,14.70
2012,07,09,01,15,14.70
2012,07,09,01,16,14.70
2012,07,09,01,17,14.70
2012,07,09,01,18,14.60
2012,07,09,01,19,14.60
2012,07,09,01,20,14.60
2012,07,09,01,21,14.60
2012,07,09,01,22,14.60
2012,07,09,01,23,14.60
2012,07,09,01,24,14.60
2012,07,09,01,25,14.60
2012,07,09,01,26,14.60
2012,07,09,01,27,14.60
2012,07,09,01,28,14.60
2012,07,09,01,29,14.50
2012,07,09,01,30,14.50
2012,07,09,01,31,14.50
2012,07,09,01,32,14.50
2012,07,09,01,33,14.50
2012,07,09,01,34,14.50
2012,07,09,01,35,14.40
2012,07,09,01,36,14.40
2012,07,09,01,37,14.40
2012,07,09,01,38,14.40
2012,07,09,01,39,14.40
2012,07,09,01,40,14.40
2012,07,09,01,41,14.30
2012,07,09,01,42,14.30
2012,07,09,01,43,14.30
2012,07,09,01,44,14.30
2012,07,09,01,45,14.30
2012,07,09,01,46,14.30
2012,07,09,01,47,14.30
2012,07,09,01,48,14.20
2012,07,09,01,49,14.20
2012,07,09,01,50,14.20
2012,07,09,01,51,14.10
2012,07,09,01,52,14.10
2012,07,09,01,53,14.00
2012,07,09,01,54,14.00
2012,07,09,01,55,13.90
2012,07,09,01,56,13.80
2012,07,09,01,57,13.80
2012,07,09,01,58,13.80
2012,07,09,01,59,13.70
2012,07,09,02,00,13.70
2012,07,09,02,01,13.70
2012,07,09,02,02,13.70
2012,07,09,02,03,13.70
2012,07,09,02,04,13.60
2012,07,09,02,05,13.60
2012,07,09,02,06,13.60
2012,07,09,02,07,13.60
2012,07,09,02,08,13.60
2012,07,09,02,09,13.60
2012,07,09,02,10,13.60
2012,07,09,02,11,13.60
2012,07,09,02,12,13.60
2012,07,09,02,13,13.60
2012,07,09,02,14,13.60
2012,07,09,02,15,13.60
2012,07,09,02,16,13.60
2012,07,09,02,17,13.50
2012,07,09,02,18,13.50
2012,07,09,02,19,13.50
2012,07,09,02,20,13.50
2012,07,09,02,21,13.50
2012,07,09,02,22,13.50
2012,07,09,02,23,13.40
2012,07,09,02,24,13.40
2012,07,09,02,25,13.40
2012,07,09,02,26,13.40
2012,07,09,02,27,13.40
2012,07,09,02,28,13.50
2012,07,09,02,29,13.50
2012,07,09,02,30,13.50
2012,07,09,02,31,13.40
2012,07,09,02,32,13.50
2012,07,09,02,33,13.50
2012,07,09,02,34,13.50
2012,07,09,02,35,13.50
2012,07,09,02,36,13.50
2012,07,09,02,37,13.50
2012,07,09,02,38,13.50
2012,07,09,02,39,13.50
2012,07,09,02,40,13.50
2012,07,09,02,41,13.60
2012,07,09,02,42,13.60
2012,07,09,02,43,13.60
2012,07,09,02,44,13.50
2012,07,09,02,45,13.50
2012,07,09,02,46,13.50
2012,07,09,02,47,13.50
2012,07,09,02,48,13.50
2012,07,09,02,49,13.50
2012,07,09,02,50,13.50
2012,07,09,02,51,13.50
2012,07,09,02,52,13.50
2012,07,09,02,53,13.50
2012,07,09,02,54,13.50
2012,07,09,02,55,13.50
2012,07,09,02,56,13.50
2012,07,09,02,57,13.40
2012,07,09,02,58,13.40
2012,07,09,02,59,13.40
2012,07,09,03,00,13.40
2012,07,09,03,01,13.40
2012,07,09,03,02,13.40
2012,07,09,03,03,13.40
2012,07,09,03,04,13.40
2012,07,09,03,05,13.40
2012,07,09,03,06,13.40
2012,07,09,03,07,13.40
2012,07,09,03,08,13.40
2012,07,09,03,09,13.40
2012,07,09,03,10,13.40
2012,07,09,03,11,13.40
2012,07,09,03,12,13.30
2012,07,09,03,13,13.30
2012,07,09,03,14,13.30
2012,07,09,03,15,13.30
2012,07,09,03,16,13.30
2012,07,09,03,17,13.30
2012,07,09,03,18,13.30
2012,07,09,03,19,13.30
2012,07,09,03,20,13.20
2012,07,09,03,21,13.20
2012,07,09,03,22,13.20
2012,07,09,03,23,13.20
2012,07,09,03,24,13.20
2012,07,09,03,25,13.20
2012,07,09,03,26,13.20
2012,07,09,03,27,13.20
2012,07,09,03,28,13.10
2012,07,09,03,29,13.10
2012,07,09,03,30,13.10
2012,07,09,03,31,13.10
2012,07,09,03,32,13.10
2012,07,09,03,33,13.00
2012,07,09,03,34,13.00
2012,07,09,03,35,13.00
2012,07,09,03,36,12.90
2012,07,09,03,37,12.90
2012,07,09,03,38,12.90
2012,07,09,03,39,12.90
2012,07,09,03,40,12.90
2012,07,09,03,41,12.80
2012,07,09,03,42,12.80
2012,07,09,03,43,12.80
2012,07,09,03,44,12.80
2012,07,09,03,45,12.70
2012,07,09,03,46,12.70
2012,07,09,03,47,12.70
2012,07,09,03,48,12.70
2012,07,09,03,49,12.60
2012,07,09,03,50,12.60
2012,07,09,03,51,12.60
2012,07,09,03,52,12.60
2012,07,09,03,53,12.50
2012,07,09,03,54,12.50
2012,07,09,03,55,12.50
2012,07,09,03,56,12.40
2012,07,09,03,57,12.40
2012,07,09,03,58,12.40
2012,07,09,03,59,12.40
2012,07,09,04,00,12.40
2012,07,09,04,01,12.40
2012,07,09,04,02,12.40
2012,07,09,04,03,12.40
2012,07,09,04,04,12.40
2012,07,09,04,05,12.30
2012,07,09,04,06,12.30
2012,07,09,04,07,12.30
2012,07,09,04,08,12.40
2012,07,09,04,09,12.40
2012,07,09,04,10,12.40
2012,07,09,04,11,12.40
2012,07,09,04,12,12.40
2012,07,09,04,13,12.40
2012,07,09,04,14,12.40
2012,07,09,04,15,12.40
2012,07,09,04,16,12.40
2012,07,09,04,17,12.40
2012,07,09,04,18,12.40
2012,07,09,04,19,12.40
2012,07,09,04,20,12.40
2012,07,09,04,21,12.50
2012,07,09,04,22,12.50
2012,07,09,04,23,12.50
2012,07,09,04,24,12.50
2012,07,09,04,25,12.50
2012,07,09,04,26,12.50
2012,07,09,04,27,12.50
2012,07,09,04,28,12.50
2012,07,09,04,29,12.50
2012,07,09,04,30,12.50
2012,07,09,04,31,12.50
2012,07,09,04,32,12.50
2012,07,09,04,33,12.50
2012,07,09,04,34,12.50
2012,07,09,04,35,12.50
2012,07,09,04,36,12.50
2012,07,09,04,37,12.50
2012,07,09,04,38,12.50
2012,07,09,04,39,12.50
2012,07,09,04,40,12.60
2012,07,09,04,41,12.60
2012,07,09,04,42,12.60
2012,07,09,04,43,12.60
2012,07,09,04,44,12.60
2012,07,09,04,45,12.60
2012,07,09,04,46,12.60
2012,07,09,04,47,12.60
2012,07,09,04,48,12.60
2012,07,09,04,49,12.60
2012,07,09,04,50,12.60
2012,07,09,04,51,12.70
2012,07,09,04,52,12.70
2012,07,09,04,53,12.70
2012,07,09,04,54,12.70
2012,07,09,04,55,12.70
2012,07,09,04,56,12.70
2012,07,09,04,57,12.70
2012,07,09,04,58,12.70
2012,07,09,04,59,12.80
2012,07,09,05,00,12.70
2012,07,09,05,01,12.80
2012,07,09,05,02,12.80
2012,07,09,05,03,12.80
2012,07,09,05,04,12.80
2012,07,09,05,05,12.80
2012,07,09,05,06,12.80
2012,07,09,05,07,12.80
2012,07,09,05,08,12.80
2012,07,09,05,09,12.90
2012,07,09,05,10,12.90
2012,07,09,05,11,12.90
2012,07,09,05,12,12.90
2012,07,09,05,13,12.90
2012,07,09,05,14,12.90
2012,07,09,05,15,12.90
2012,07,09,05,16,12.90
2012,07,09,05,17,12.90
2012,07,09,05,18,12.90
2012,07,09,05,19,12.90
2012,07,09,05,20,12.90
2012,07,09,05,21,12.90
2012,07,09,05,22,12.90
2012,07,09,05,23,12.90
2012,07,09,05,24,12.90
2012,07,09,05,25,12.90
2012,07,09,05,26,12.90
2012,07,09,05,27,12.90
2012,07,09,05,28,12.90
2012,07,09,05,29,12.80
2012,07,09,05,30,12.80
2012,07,09,05,31,12.80
2012,07,09,05,32,12.80
2012,07,09,05,33,12.80
2012,07,09,05,34,12.70
2012,07,09,05,35,12.70
2012,07,09,05,36,12.70
2012,07,09,05,37,12.70
2012,07,09,05,38,12.70
2012,07,09,05,39,12.70
2012,07,09,05,40,12.70
2012,07,09,05,41,12.70
2012,07,09,05,42,12.70
2012,07,09,05,43,12.60
2012,07,09,05,44,12.60
2012,07,09,05,45,12.60
2012,07,09,05,46,12.60
2012,07,09,05,47,12.70
2012,07,09,05,48,12.70
2012,07,09,05,49,12.70
2012,07,09,05,50,12.70
2012,07,09,05,51,12.70
2012,07,09,05,52,12.70
2012,07,09,05,53,12.70
2012,07,09,05,54,12.70
2012,07,09,05,55,12.70
2012,07,09,05,56,12.70
2012,07,09,05,57,12.70
2012,07,09,05,58,12.70
2012,07,09,05,59,12.80
2012,07,09,06,00,12.80
2012,07,09,06,01,12.80
2012,07,09,06,02,12.80
2012,07,09,06,03,12.80
2012,07,09,06,04,12.80
2012,07,09,06,05,12.80
2012,07,09,06,06,12.80
2012,07,09,06,07,12.80
2012,07,09,06,08,12.80
2012,07,09,06,09,12.80
2012,07,09,06,10,12.80
2012,07,09,06,11,12.80
2012,07,09,06,12,12.80
2012,07,09,06,13,12.80
2012,07,09,06,14,12.80
2012,07,09,06,15,12.80
2012,07,09,06,16,12.80
2012,07,09,06,17,12.70
2012,07,09,06,18,12.70
2012,07,09,06,19,12.70
2012,07,09,06,20,12.70
2012,07,09,06,21,12.70
2012,07,09,06,22,12.70
2012,07,09,06,23,12.80
2012,07,09,06,24,12.80
2012,07,09,06,25,12.80
2012,07,09,06,26,12.80
2012,07,09,06,27,12.90
2012,07,09,06,28,12.90
2012,07,09,06,29,12.90
2012,07,09,06,30,13.00
2012,07,09,06,31,13.00
2012,07,09,06,32,13.00
2012,07,09,06,33,13.10
2012,07,09,06,34,13.10
2012,07,09,06,35,13.10
2012,07,09,06,36,13.20
2012,07,09,06,37,13.30
2012,07,09,06,38,13.30
2012,07,09,06,39,13.40
2012,07,09,06,40,13.40
2012,07,09,06,41,13.40
2012,07,09,06,42,13.40
2012,07,09,06,43,13.40
2012,07,09,06,44,13.40
2012,07,09,06,45,13.40
2012,07,09,06,46,13.40
2012,07,09,06,47,13.40
2012,07,09,06,48,13.50
2012,07,09,06,49,13.50
2012,07,09,06,50,13.50
2012,07,09,06,51,13.60
2012,07,09,06,52,13.70
2012,07,09,06,53,13.70
2012,07,09,06,54,13.80
2012,07,09,06,55,13.90
2012,07,09,06,56,13.90
2012,07,09,06,57,13.90
2012,07,09,06,58,13.90
2012,07,09,06,59,13.80
2012,07,09,07,00,13.70
2012,07,09,07,01,13.60
2012,07,09,07,02,13.60
2012,07,09,07,03,13.60
2012,07,09,07,04,13.50
2012,07,09,07,05,13.50
2012,07,09,07,06,13.50
2012,07,09,07,07,13.60
2012,07,09,07,08,13.60
2012,07,09,07,09,13.60
2012,07,09,07,10,13.70
2012,07,09,07,11,13.70
2012,07,09,07,12,13.70
2012,07,09,07,13,13.80
2012,07,09,07,14,13.80
2012,07,09,07,15,13.80
2012,07,09,07,16,13.90
2012,07,09,07,17,14.00
2012,07,09,07,18,14.10
2012,07,09,07,19,14.10
2012,07,09,07,20,14.10
2012,07,09,07,21,14.20
2012,07,09,07,22,14.20
2012,07,09,07,23,14.30
2012,07,09,07,24,14.50
2012,07,09,07,25,14.60
2012,07,09,07,26,14.80
2012,07,09,07,27,15.00
2012,07,09,07,28,15.00
2012,07,09,07,29,15.10
2012,07,09,07,30,15.30
2012,07,09,07,31,15.40
2012,07,09,07,32,15.50
2012,07,09,07,33,15.60
2012,07,09,07,34,15.60
2012,07,09,07,35,15.50
2012,07,09,07,36,15.50
2012,07,09,07,37,15.40
2012,07,09,07,38,15.40
2012,07,09,07,39,15.20
2012,07,09,07,40,15.10
2012,07,09,07,41,15.10
2012,07,09,07,42,15.10
2012,07,09,07,43,15.00
2012,07,09,07,44,15.00
2012,07,09,07,45,15.00
2012,07,09,07,46,15.00
2012,07,09,07,47,15.00
2012,07,09,07,48,15.00
2012,07,09,07,49,14.90
2012,07,09,07,50,14.80
2012,07,09,07,51,14.80
2012,07,09,07,52,14.80
2012,07,09,07,53,14.80
2012,07,09,07,54,14.90
2012,07,09,07,55,15.00
2012,07,09,07,56,15.00
2012,07,09,07,57,15.00
2012,07,09,07,58,15.20
2012,07,09,07,59,15.30
2012,07,09,08,00,15.40
2012,07,09,08,01,15.40
2012,07,09,08,02,15.40
2012,07,09,08,03,15.50
2012,07,09,08,04,15.50
2012,07,09,08,05,15.60
2012,07,09,08,06,15.70
2012,07,09,08,07,15.80
2012,07,09,08,08,15.80
2012,07,09,08,09,15.90
2012,07,09,08,10,15.90
2012,07,09,08,11,15.90
2012,07,09,08,12,16.00
2012,07,09,08,13,16.00
2012,07,09,08,14,16.10
2012,07,09,08,15,16.10
2012,07,09,08,16,16.10
2012,07,09,08,17,16.10
2012,07,09,08,18,16.10
2012,07,09,08,19,16.20
2012,07,09,08,20,16.20
2012,07,09,08,21,16.30
2012,07,09,08,22,16.30
2012,07,09,08,23,16.30
2012,07,09,08,24,16.20
2012,07,09,08,25,16.20
2012,07,09,08,26,16.30
2012,07,09,08,27,16.30
2012,07,09,08,28,16.20
2012,07,09,08,29,16.20
2012,07,09,08,30,16.30
2012,07,09,08,31,16.30
2012,07,09,08,32,16.30
2012,07,09,08,33,16.40
2012,07,09,08,34,16.50
2012,07,09,08,35,16.60
2012,07,09,08,36,16.70
2012,07,09,08,37,16.80
2012,07,09,08,38,16.90
2012,07,09,08,39,17.00
2012,07,09,08,40,17.10
2012,07,09,08,41,17.20
2012,07,09,08,42,17.40
2012,07,09,08,43,17.50
2012,07,09,08,44,17.60
2012,07,09,08,45,17.60
2012,07,09,08,46,17.60
2012,07,09,08,47,17.60
2012,07,09,08,48,17.50
2012,07,09,08,49,17.30
2012,07,09,08,50,17.20
2012,07,09,08,51,17.00
2012,07,09,08,52,16.90
2012,07,09,08,53,16.90
2012,07,09,08,54,16.90
2012,07,09,08,55,16.90
2012,07,09,08,56,16.90
2012,07,09,08,57,16.80
2012,07,09,08,58,16.70
2012,07,09,08,59,16.50
2012,07,09,09,00,16.40
2012,07,09,09,01,16.50
2012,07,09,09,02,16.60
2012,07,09,09,03,16.70
2012,07,09,09,04,16.90
2012,07,09,09,05,17.10
2012,07,09,09,06,17.30
2012,07,09,09,07,17.40
2012,07,09,09,08,17.40
2012,07,09,09,09,17.50
2012,07,09,09,10,17.50
2012,07,09,09,11,17.60
2012,07,09,09,12,17.60
2012,07,09,09,13,17.50
2012,07,09,09,14,17.40
2012,07,09,09,15,17.40
2012,07,09,09,16,17.40
2012,07,09,09,17,17.40
2012,07,09,09,18,17.40
2012,07,09,09,19,17.40
2012,07,09,09,20,17.40
2012,07,09,09,21,17.30
2012,07,09,09,22,17.40
2012,07,09,09,23,17.40
2012,07,09,09,24,17.30
2012,07,09,09,25,17.30
2012,07,09,09,26,17.20
2012,07,09,09,27,17.20
2012,07,09,09,28,17.10
2012,07,09,09,29,17.10
2012,07,09,09,30,17.20
2012,07,09,09,31,17.20
2012,07,09,09,32,17.20
2012,07,09,09,33,17.20
2012,07,09,09,34,17.20
2012,07,09,09,35,17.20
2012,07,09,09,36,17.20
2012,07,09,09,37,17.40
2012,07,09,09,38,17.40
2012,07,09,09,39,17.40
2012,07,09,09,40,17.50
2012,07,09,09,41,17.50
2012,07,09,09,42,17.50
2012,07,09,09,43,17.60
2012,07,09,09,44,17.70
2012,07,09,09,45,17.80
2012,07,09,09,46,17.90
2012,07,09,09,47,17.90
2012,07,09,09,48,17.80
2012,07,09,09,49,17.80
2012,07,09,09,50,17.80
2012,07,09,09,51,17.80
2012,07,09,09,52,17.90
2012,07,09,09,53,18.10
2012,07,09,09,54,18.10
2012,07,09,09,55,18.20
2012,07,09,09,56,18.20
2012,07,09,09,57,18.30
2012,07,09,09,58,18.40
2012,07,09,09,59,18.50
2012,07,09,10,00,18.60
2012,07,09,10,01,18.70
2012,07,09,10,02,18.70
2012,07,09,10,03,18.80
2012,07,09,10,04,18.80
2012,07,09,10,05,18.80
2012,07,09,10,06,18.70
2012,07,09,10,07,18.70
2012,07,09,10,08,18.60
2012,07,09,10,09,18.60
2012,07,09,10,10,18.70
2012,07,09,10,11,18.70
2012,07,09,10,12,18.70
2012,07,09,10,13,18.70
2012,07,09,10,14,18.70
2012,07,09,10,15,18.70
2012,07,09,10,16,18.70
2012,07,09,10,17,18.60
2012,07,09,10,18,18.40
2012,07,09,10,19,18.40
2012,07,09,10,20,18.30
2012,07,09,10,21,18.30
2012,07,09,10,22,18.40
2012,07,09,10,23,18.50
2012,07,09,10,24,18.60
2012,07,09,10,25,18.60
2012,07,09,10,26,18.50
2012,07,09,10,27,18.50
2012,07,09,10,28,18.60
2012,07,09,10,29,18.60
2012,07,09,10,30,18.60
2012,07,09,10,31,18.70
2012,07,09,10,32,18.80
2012,07,09,10,33,18.90
2012,07,09,10,34,18.90
2012,07,09,10,35,18.90
2012,07,09,10,36,19.00
2012,07,09,10,37,19.10
2012,07,09,10,38,19.00
2012,07,09,10,39,18.90
2012,07,09,10,40,18.80
2012,07,09,10,41,18.60
2012,07,09,10,42,18.40
2012,07,09,10,43,18.40
2012,07,09,10,44,18.30
2012,07,09,10,45,18.20
2012,07,09,10,46,18.20
2012,07,09,10,47,18.00
2012,07,09,10,48,17.90
2012,07,09,10,49,17.80
2012,07,09,10,50,17.80
2012,07,09,10,51,17.90
2012,07,09,10,52,18.10
2012,07,09,10,53,18.20
2012,07,09,10,54,18.20
2012,07,09,10,55,18.20
2012,07,09,10,56,18.30
2012,07,09,10,57,18.30
2012,07,09,10,58,18.20
2012,07,09,10,59,18.20
2012,07,09,11,00,18.30
2012,07,09,11,01,18.50
2012,07,09,11,02,18.60
2012,07,09,11,03,18.60
2012,07,09,11,04,18.70
2012,07,09,11,05,18.80
2012,07,09,11,06,18.90
2012,07,09,11,07,19.00
2012,07,09,11,08,19.10
2012,07,09,11,09,19.00
2012,07,09,11,10,18.90
2012,07,09,11,11,18.80
2012,07,09,11,12,18.70
2012,07,09,11,13,18.60
2012,07,09,11,14,18.60
2012,07,09,11,15,18.60
2012,07,09,11,16,18.60
2012,07,09,11,17,18.70
2012,07,09,11,18,18.80
2012,07,09,11,19,18.80
2012,07,09,11,20,18.70
2012,07,09,11,21,18.80
2012,07,09,11,22,18.90
2012,07,09,11,23,19.00
2012,07,09,11,24,19.20
2012,07,09,11,25,19.30
2012,07,09,11,26,19.30
2012,07,09,11,27,19.10
2012,07,09,11,28,19.00
2012,07,09,11,29,18.90
2012,07,09,11,30,19.00
2012,07,09,11,31,19.10
2012,07,09,11,32,19.20
2012,07,09,11,33,19.20
2012,07,09,11,34,19.20
2012,07,09,11,35,19.00
2012,07,09,11,36,18.80
2012,07,09,11,37,18.80
2012,07,09,11,38,18.70
2012,07,09,11,39,18.70
2012,07,09,11,40,18.70
2012,07,09,11,41,18.70
2012,07,09,11,42,18.70
2012,07,09,11,43,18.80
2012,07,09,11,44,18.70
2012,07,09,11,45,18.60
2012,07,09,11,46,18.60
2012,07,09,11,47,18.60
2012,07,09,11,48,18.60
2012,07,09,11,49,18.70
2012,07,09,11,50,18.70
2012,07,09,11,51,18.80
2012,07,09,11,52,19.00
2012,07,09,11,53,19.00
2012,07,09,11,54,19.10
2012,07,09,11,55,19.20
2012,07,09,11,56,19.20
2012,07,09,11,57,19.10
2012,07,09,11,58,19.00
2012,07,09,11,59,18.90
2012,07,09,12,00,18.90
2012,07,09,12,01,18.90
2012,07,09,12,02,18.90
2012,07,09,12,03,18.90
2012,07,09,12,04,18.90
2012,07,09,12,05,19.00
2012,07,09,12,06,19.10
2012,07,09,12,07,19.10
2012,07,09,12,08,19.10
2012,07,09,12,09,19.00
2012,07,09,12,10,18.80
2012,07,09,12,11,18.70
2012,07,09,12,12,18.70
2012,07,09,12,13,18.60
2012,07,09,12,14,18.50
2012,07,09,12,15,18.40
2012,07,09,12,16,18.40
2012,07,09,12,17,18.40
2012,07,09,12,18,18.50
2012,07,09,12,19,18.60
2012,07,09,12,20,18.80
2012,07,09,12,21,18.80
2012,07,09,12,22,18.90
2012,07,09,12,23,18.90
2012,07,09,12,24,18.90
2012,07,09,12,25,18.90
2012,07,09,12,26,18.90
2012,07,09,12,27,19.00
2012,07,09,12,28,19.10
2012,07,09,12,29,19.20
2012,07,09,12,30,19.30
2012,07,09,12,31,19.30
2012,07,09,12,32,19.30
2012,07,09,12,33,19.40
2012,07,09,12,34,19.50
2012,07,09,12,35,19.50
2012,07,09,12,36,19.70
2012,07,09,12,37,19.70
2012,07,09,12,38,19.80
2012,07,09,12,39,19.90
2012,07,09,12,40,19.90
2012,07,09,12,41,20.00
2012,07,09,12,42,20.00
2012,07,09,12,43,20.00
2012,07,09,12,44,19.90
2012,07,09,12,45,19.80
2012,07,09,12,46,19.80
2012,07,09,12,47,19.90
2012,07,09,12,48,20.00
2012,07,09,12,49,20.00
2012,07,09,12,50,20.00
2012,07,09,12,51,19.90
2012,07,09,12,52,20.00
2012,07,09,12,53,20.00
2012,07,09,12,54,20.10
2012,07,09,12,55,20.10
2012,07,09,12,56,20.20
2012,07,09,12,57,20.30
2012,07,09,12,58,20.40
2012,07,09,12,59,20.40
2012,07,09,13,00,20.50
2012,07,09,13,01,20.40
2012,07,09,13,02,20.40
2012,07,09,13,03,20.30
2012,07,09,13,04,20.20
2012,07,09,13,05,20.00
2012,07,09,13,06,20.00
2012,07,09,13,07,20.00
2012,07,09,13,08,20.00
2012,07,09,13,09,19.90
2012,07,09,13,10,19.90
2012,07,09,13,11,19.80
2012,07,09,13,12,19.70
2012,07,09,13,13,19.70
2012,07,09,13,14,19.70
2012,07,09,13,15,19.70
2012,07,09,13,16,19.80
2012,07,09,13,17,19.90
2012,07,09,13,18,20.00
2012,07,09,13,19,20.10
2012,07,09,13,20,20.00
2012,07,09,13,21,20.00
2012,07,09,13,22,20.00
2012,07,09,13,23,20.00
2012,07,09,13,24,20.00
2012,07,09,13,25,20.10
2012,07,09,13,26,20.10
2012,07,09,13,27,20.10
2012,07,09,13,28,20.20
2012,07,09,13,29,20.20
2012,07,09,13,30,20.20
2012,07,09,13,31,20.10
2012,07,09,13,32,20.10
2012,07,09,13,33,20.00
2012,07,09,13,34,20.00
2012,07,09,13,35,20.10
2012,07,09,13,36,20.20
2012,07,09,13,37,20.30
2012,07,09,13,38,20.30
2012,07,09,13,39,20.40
2012,07,09,13,40,20.50
2012,07,09,13,41,20.50
2012,07,09,13,42,20.40
2012,07,09,13,43,20.30
2012,07,09,13,44,20.30
2012,07,09,13,45,20.30
2012,07,09,13,46,20.30
2012,07,09,13,47,20.20
2012,07,09,13,48,20.20
2012,07,09,13,49,20.30
2012,07,09,13,50,20.40
2012,07,09,13,51,20.40
2012,07,09,13,52,20.50
2012,07,09,13,53,20.60
2012,07,09,13,54,20.60
2012,07,09,13,55,20.60
2012,07,09,13,56,20.60
2012,07,09,13,57,20.70
2012,07,09,13,58,20.80
2012,07,09,13,59,20.80
2012,07,09,14,00,20.90
2012,07,09,14,01,20.90
2012,07,09,14,02,21.00
2012,07,09,14,03,21.20
2012,07,09,14,04,21.30
2012,07,09,14,05,21.30
2012,07,09,14,06,21.30
2012,07,09,14,07,21.40
2012,07,09,14,08,21.40
2012,07,09,14,09,21.50
2012,07,09,14,10,21.50
2012,07,09,14,11,21.50
2012,07,09,14,12,21.50
2012,07,09,14,13,21.50
2012,07,09,14,14,21.40
2012,07,09,14,15,21.40
2012,07,09,14,16,21.30
2012,07,09,14,17,21.30
2012,07,09,14,18,21.30
2012,07,09,14,19,21.30
2012,07,09,14,20,21.30
2012,07,09,14,21,21.40
2012,07,09,14,22,21.40
2012,07,09,14,23,21.40
2012,07,09,14,24,21.40
2012,07,09,14,25,21.30
2012,07,09,14,26,21.40
2012,07,09,14,27,21.40
2012,07,09,14,28,21.30
2012,07,09,14,29,21.40
2012,07,09,14,30,21.40
2012,07,09,14,31,21.40
2012,07,09,14,32,21.40
2012,07,09,14,33,21.40
2012,07,09,14,34,21.40
2012,07,09,14,35,21.50
2012,07,09,14,36,21.50
2012,07,09,14,37,21.60
2012,07,09,14,38,21.60
2012,07,09,14,39,21.70
2012,07,09,14,40,21.70
2012,07,09,14,41,21.80
2012,07,09,14,42,21.70
2012,07,09,14,43,21.70
2012,07,09,14,44,21.70
2012,07,09,14,45,21.70
2012,07,09,14,46,21.60
2012,07,09,14,47,21.60
2012,07,09,14,48,21.60
2012,07,09,14,49,21.50
2012,07,09,14,50,21.50
2012,07,09,14,51,21.50
2012,07,09,14,52,21.60
2012,07,09,14,53,21.60
2012,07,09,14,54,21.70
2012,07,09,14,55,21.80
2012,07,09,14,56,21.80
2012,07,09,14,57,21.90
2012,07,09,14,58,22.00
2012,07,09,14,59,22.10
2012,07,09,15,00,22.30
2012,07,09,15,01,22.40
2012,07,09,15,02,22.50
2012,07,09,15,03,22.50
2012,07,09,15,04,22.60
2012,07,09,15,05,22.60
2012,07,09,15,06,22.60
2012,07,09,15,07,22.70
2012,07,09,15,08,22.80
2012,07,09,15,09,22.80
2012,07,09,15,10,22.80
2012,07,09,15,11,22.80
2012,07,09,15,12,22.90
2012,07,09,15,13,23.00
2012,07,09,15,14,23.10
2012,07,09,15,15,23.10
2012,07,09,15,16,23.00
2012,07,09,15,17,23.00
2012,07,09,15,18,22.90
2012,07,09,15,19,22.90
2012,07,09,15,20,23.00
2012,07,09,15,21,23.10
2012,07,09,15,22,23.20
2012,07,09,15,23,23.30
2012,07,09,15,24,23.40
2012,07,09,15,25,23.40
2012,07,09,15,26,23.50
2012,07,09,15,27,23.60
2012,07,09,15,28,23.70
2012,07,09,15,29,23.80
2012,07,09,15,30,23.90
2012,07,09,15,31,23.90
2012,07,09,15,32,23.80
2012,07,09,15,33,23.70
2012,07,09,15,34,23.70
2012,07,09,15,35,23.60
2012,07,09,15,36,23.40
2012,07,09,15,37,23.40
2012,07,09,15,38,23.30
2012,07,09,15,39,23.20
2012,07,09,15,40,23.20
2012,07,09,15,41,23.10
2012,07,09,15,42,23.10
2012,07,09,15,43,23.10
2012,07,09,15,44,23.20
2012,07,09,15,45,23.20
2012,07,09,15,46,23.20
2012,07,09,15,47,23.00
2012,07,09,15,48,22.90
2012,07,09,15,49,22.80
2012,07,09,15,50,22.80
2012,07,09,15,51,22.70
2012,07,09,15,52,22.70
2012,07,09,15,53,22.70
2012,07,09,15,54,22.70
2012,07,09,15,55,22.70
2012,07,09,15,56,22.80
2012,07,09,15,57,22.90
2012,07,09,15,58,22.90
2012,07,09,15,59,22.90
2012,07,09,16,00,22.90
2012,07,09,16,01,23.00
2012,07,09,16,02,23.00
2012,07,09,16,03,23.00
2012,07,09,16,04,23.00
2012,07,09,16,05,22.90
2012,07,09,16,06,22.90
2012,07,09,16,07,22.80
2012,07,09,16,08,22.80
2012,07,09,16,09,22.80
2012,07,09,16,10,22.80
2012,07,09,16,11,22.70
2012,07,09,16,12,22.70
2012,07,09,16,13,22.70
2012,07,09,16,14,22.80
2012,07,09,16,15,22.80
2012,07,09,16,16,22.80
2012,07,09,16,17,22.70
2012,07,09,16,18,22.60
2012,07,09,16,19,22.70
2012,07,09,16,20,22.70
2012,07,09,16,21,22.70
2012,07,09,16,22,22.80
2012,07,09,16,23,22.80
2012,07,09,16,24,23.00
2012,07,09,16,25,23.10
2012,07,09,16,26,23.20
2012,07,09,16,27,23.20
2012,07,09,16,28,23.30
2012,07,09,16,29,23.30
2012,07,09,16,30,23.30
2012,07,09,16,31,23.40
2012,07,09,16,32,23.40
2012,07,09,16,33,23.40
2012,07,09,16,34,23.40
2012,07,09,16,35,23.30
2012,07,09,16,36,23.30
2012,07,09,16,37,23.10
2012,07,09,16,38,23.00
2012,07,09,16,39,22.80
2012,07,09,16,40,22.80
2012,07,09,16,41,22.80
2012,07,09,16,42,22.80
2012,07,09,16,43,22.80
2012,07,09,16,44,22.90
2012,07,09,16,45,23.00
2012,07,09,16,46,22.90
2012,07,09,16,47,23.00
2012,07,09,16,48,23.00
2012,07,09,16,49,23.00
2012,07,09,16,50,22.90
2012,07,09,16,51,22.80
2012,07,09,16,52,22.80
2012,07,09,16,53,22.80
2012,07,09,16,54,22.70
2012,07,09,16,55,22.60
2012,07,09,16,56,22.60
2012,07,09,16,57,22.50
2012,07,09,16,58,22.60
2012,07,09,16,59,22.60
2012,07,09,17,00,22.60
2012,07,09,17,01,22.50
2012,07,09,17,02,22.40
2012,07,09,17,03,22.40
2012,07,09,17,04,22.40
2012,07,09,17,05,22.40
2012,07,09,17,06,22.40
2012,07,09,17,07,22.40
2012,07,09,17,08,22.40
2012,07,09,17,09,22.40
2012,07,09,17,10,22.50
2012,07,09,17,11,22.60
2012,07,09,17,12,22.70
2012,07,09,17,13,22.70
2012,07,09,17,14,22.70
2012,07,09,17,15,22.70
2012,07,09,17,16,22.70
2012,07,09,17,17,22.70
2012,07,09,17,18,22.60
2012,07,09,17,19,22.60